Regional Weather Roundup
Issued by NWS Mobile, AL

Home | Current Version | Previous Version | Text Only | Print | Product List | Glossary On
Versions: 1 2 3 4 5 6 7 8 9 10 11 12 13 14 15 16 17 18 19 20 21 22 23 24 25 26 27 28
000
ASUS44 KMOB 162310
RWRMOB
REGIONAL WEATHER ROUNDUP
NATIONAL WEATHER SERVICE MOBILE AL
600 PM CDT WED APR 16 2014

NOTE: "FAIR" INDICATES FEW OR NO CLOUDS BELOW 12,000 FEET WITH NO
      SIGNIFICANT WEATHER AND/OR OBSTRUCTIONS TO VISIBILITY.

  * THESE STATIONS ARE PART OF THE UNIVERSITY OF SOUTH ALABAMA
    MESONET AND ARE NOT UNDER NWS OR FAA QUALITY CONTROL.

ALZ061>064-170000-
COASTAL ALABAMA

CITY           SKY/WX    TMP DP  RH WIND       PRES   REMARKS
MOBILE REG APT MOSUNNY   63  38  39 SW8       30.14R
BROOKLEY FIELD SUNNY     60  43  53 S9        30.15R
USA CAMPUS*      N/A     64  37  36 CALM      30.12R
DOG RIVER*     NOT AVBL


CITY           SKY/WX    TMP DP  RH WIND       PRES   REMARKS
MOUNT VERNON*    N/A     68  34  28 CALM      30.13S
SARALAND*      NOT AVBL
BAY MINETTE*   NOT AVBL
LOXLEY*        NOT AVBL
ROBERTSDALE*   NOT AVBL
FAIRHOPE*      NOT AVBL
ELBERTA*       NOT AVBL
FOLEY*         NOT AVBL
GRAND BAY*       N/A     57  45  62 S12       30.13R
DAUPHIN ISLND* NOT AVBL
BON SCOUR NWR* NOT AVBL
GULF SHORES    SUNNY     59  45  60 S7        30.14R

$$

ALZ051>060-170000-
INTERIOR SOUTHWEST AND SOUTH CENTRAL ALABAMA

CITY           SKY/WX    TMP DP  RH WIND       PRES   REMARKS
GREENVILLE     SUNNY     64  35  34 SE6       30.13F
EVERGREEN      SUNNY     67  38  34 SE7       30.14F
CASTLEBERRY*   NOT AVBL
ATMORE*          N/A     66  39  37 E2        30.14S
DIXIE*         NOT AVBL
ANDALUSIA/OPP  SUNNY     69  34  27 SE8       30.14S
ANDALUSIA*     NOT AVBL
FLORALA APT    SUNNY     65  36  34 E7        30.15F
FLORALA*         N/A     64  34  32 NE2       30.12S

$$

FLZ001>006-170000-
WESTERN FLORIDA PANHANDLE

CITY           SKY/WX    TMP DP  RH WIND       PRES   REMARKS
PENSACOLA      SUNNY     63  43  48 S9        30.12S
NAS PENSACOLA  MOSUNNY   61  45  55 S9        30.14R
MILTON         MOSUNNY   66  39  37 NE7       30.11F
WHTNG S FIELD  MOSUNNY   69  39  33 NE8       30.11F


CITY           SKY/WX    TMP DP  RH WIND       PRES   REMARKS
WALNUT HILL*   NOT AVBL
JAY*           NOT AVBL
DUKE FIELD     MOSUNNY   68  39  34 NE9       30.12F
CRESTVIEW      SUNNY     67  40  37 NE8       30.14S
VALPARAISO     MOSUNNY   65  49  54 S9        30.12F
DESTIN         SUNNY     66  47  50 SE3       30.11F

$$

MSZ076-079-170000-
INTERIOR SOUTHEAST MISSISSIPPI

CITY           SKY/WX    TMP DP  RH WIND       PRES   REMARKS
LEAKESVILLE*     N/A    N/A N/A N/A CALM      30.12S
AGRICOLA*      NOT AVBL

$$

MARINE OBSERVATIONS

STATION/POSITION TIME  TEMP    WIND        PRES    WAVE
                       AIR SEA DIR/SP/G            HT/PER
                 (UTC) (F)     (DEG/KT/KT) (MB)    (FT/S)
PASCAGOULA       2300   58     170/  7/ 10 1020.6F
PETIT BOIS ISLND 2300   57     130/  8/ 10 1021.3R
GRAND BAY        2200   56     170/  9     1021.0S
KATRINA CUT      2200   57     150/  8     1021.7S
CEDAR POINT      2200   59     160/  7     1020.6R
E DAUPHIN ISLAND 2200   57     140/ 13/ 15 1020.7S
MIDDLE BAY LIGHT 2200   58     200/ 12     1020.0S
USCG MOBILE BAY  2300   60 63  170/  9/ 12 1019.3R
STATE DOCKS      2300   61 63              1020.1R
MEAHER PARK      2100   60     180/  8     1020.6F
WEEKS BAY        2200   62                   N/A
FORT MORGAN      2300   57     150/ 11/ 13 1020.4F
12 S ORANGE BCH  2300   59 66  130/ 10/ 14 1020.8R   2/ 6
PENSACOLA BAY    2300   63 68  180/  6/  9 1020.5R
64 S DAUPHIN ISL 2214   58 70   80/ 10/ 14 1020.7R
67 S FORT MORGAN 2200   59                 1020.0S

$$

SELECTED LOCATIONS ACROSS THE REGION

CITY           SKY/WX    TMP DP  RH WIND       PRES   REMARKS
NEW ORLEANS    MOSUNNY   61  43  51 NE12      30.12F
GULFPORT       MOSUNNY   58  43  57 SE9       30.14F
PASCAGOULA AP  SUNNY     59  44  57 S6        30.15S
PASCAGOULA*      N/A     59  45  58 S3        30.15S
HATTIESBURG    SUNNY     67  31  26 CALM      30.13S
LAUREL         SUNNY     64  30  27 SE6       30.14S
MERIDIAN       SUNNY     65  32  29 S7        30.12S
JACKSON        PTSUNNY   64  31  28 S5        30.12R
MONTGOMERY     SUNNY     66  33  29 E7        30.16F
TROY           SUNNY     65  31  28 E6        30.16S
KINSTON*       NOT AVBL
GENEVA*          N/A     64  37  36 E5        30.17S
ASHFORD*       NOT AVBL
DOTHAN         SUNNY     63  33  32 E10       30.19S
PANAMA CITY    SUNNY     69  44  40 NE7       30.11F

$$




USA.gov is the U.S. government's official web portal to all federal, state and local government web resources and services.